GFSSE_250_rhum_021.txt.gz
RH
10 12 13 13 14 14 15 17 18 18 18 20 20 22 29 35 36 24 34 44 59 40 31 37 26 29 36 36 35 41 46 47 51 40 37 37 32 35 31 23 18 25 26
10 10 11 12 14 14 16 18 19 21 24 25 26 36 52 34 29 24 37 39 43 36 33 38 34 38 45 42 51 57 64 56 66 41 55 51 31 38 39 38 43 64 58
8 8 8 12 14 16 18 20 21 23 29 33 34 48 58 46 29 32 48 40 35 31 38 41 40 46 48 53 74 67 59 95 100 100 86 60 66 61 87 84 79 56 42
8 8 10 12 17 21 23 22 29 33 38 35 36 50 62 59 57 62 61 55 48 54 62 55 66 85 88 91 81 75 94 96 100 64 96 86 100 100 100 87 78 51 41
15 21 27 26 28 22 22 31 31 31 29 40 47 71 61 56 55 92 70 60 81 92 90 99 84 86 81 72 71 100 100 100 66 100 80 95 100 100 87 81 58 38 99
12 16 22 22 17 28 38 36 25 25 57 69 60 75 100 94 98 94 100 98 100 98 88 86 73 79 100 95 100 92 100 93 86 73 72 97 100 59 49 48 58 100 100
28 46 29 48 85 79 70 38 45 70 100 100 100 98 91 74 72 89 90 88 81 85 88 74 71 70 59 87 100 100 100 98 84 70 80 99 69 70 42 89 100 100 77
22 41 62 50 69 79 74 46 54 70 99 93 99 100 100 98 94 97 87 100 97 93 79 81 82 93 83 78 82 79 94 93 76 90 65 75 92 100 100 100 96 66 80
80 100 100 100 100 92 100 90 89 82 99 95 88 97 81 95 93 100 100 100 99 79 84 85 69 92 68 86 86 100 68 79 75 86 100 95 97 99 82 85 83 73 77
25 76 100 100 100 100 76 100 93 67 98 100 100 100 100 90 83 90 87 88 86 74 82 72 82 91 81 100 97 91 100 90 100 81 87 95 98 96 79 58 70 66 56
74 100 100 100 100 100 100 100 100 100 100 100 100 100 100 100 100 98 92 100 99 100 100 100 100 94 99 97 100 100 100 94 76 70 72 75 79 75 70 73 57 50 45
100 100 100 100 100 100 100 100 100 100 95 100 100 100 100 100 100 100 100 100 95 95 87 100 100 100 100 98 97 89 90 81 84 77 73 65 62 75 70 61 46 38 36
100 100 100 100 100 100 100 100 100 100 100 100 100 100 100 99 100 100 100 100 100 97 83 100 100 100 100 96 89 80 86 82 71 72 75 78 74 53 42 34 31 28 28
100 100 100 100 100 100 100 100 100 100 100 100 100 100 100 100 100 100 100 100 100 100 100 100 100 89 92 84 86 84 80 92 85 79 76 57 46 31 28 28 25 24 24
100 100 100 100 100 100 100 100 100 100 100 100 100 100 100 100 100 100 100 100 100 100 98 100 98 90 90 93 95 100 97 84 82 65 53 36 29 28 25 26 24 23 22
91 100 100 100 100 100 100 100 100 100 100 100 100 100 100 100 100 100 100 100 98 99 100 100 100 100 89 100 89 81 72 60 49 38 31 32 33 36 37 41 40 43 44
69 68 94 100 100 100 100 100 100 100 100 100 100 100 100 100 100 100 100 100 100 100 98 100 100 96 88 71 63 54 45 36 32 29 29 29 32 32 35 36 40 45 49
100 84 88 92 89 78 70 70 100 100 94 99 100 100 100 100 100 100 100 100 100 100 95 92 93 79 64 47 40 32 32 30 30 28 30 27 28 28 32 39 46 51 55
100 100 100 98 98 100 100 100 100 100 100 100 100 100 100 100 100 100 100 93 90 87 83 75 62 49 39 31 33 30 30 26 28 29 28 26 30 36 43 45 44 43 44
100 100 100 100 100 100 100 100 100 98 92 83 92 92 89 100 90 85 79 76 67 60 51 45 39 32 28 30 28 27 26 30 29 26 27 34 37 42 47 49 46 43 44
100 100 100 100 100 100 92 89 78 70 70 78 87 100 96 83 68 74 67 54 48 43 38 34 30 30 30 28 27 31 30 29 28 29 33 39 45 51 53 52 46 44 41
100 100 100 86 88 81 70 64 66 72 75 77 70 64 66 66 56 51 49 44 37 32 31 30 28 27 26 28 28 29 29 32 35 41 47 51 53 50 47 45 46 44 41
99 99 76 83 67 52 53 56 61 56 54 52 44 46 58 63 52 40 36 33 33 34 32 30 29 34 37 37 39 36 34 41 51 59 62 63 60 55 52 46 44 42 38
64 71 91 77 55 27 20 20 28 45 58 56 53 56 46 38 35 34 35 38 40 37 34 35 40 41 38 36 36 41 45 56 62 72 69 64 61 56 53 43 37 32 25
60 57 53 43 28 42 51 54 47 53 42 42 45 43 38 35 38 41 40 39 41 42 44 45 43 38 35 37 42 51 62 74 79 76 69 61 55 50 46 38 25 20 17
47 50 52 39 48 61 57 73 75 70 44 42 54 47 40 44 47 44 42 42 41 42 42 43 39 39 40 51 55 63 69 76 70 63 57 54 48 44 39 28 20 15 14

GFSSE_250_rhum_024.txt.gz
RH
10 10 10 10 11 10 11 11 11 13 14 14 15 15 20 20 19 20 21 19 20 22 19 24 19 24 34 29 19 20 24 30 30 28 37 45 51 50 47 41 35 43 35
9 9 9 9 9 9 10 10 12 14 15 16 18 21 23 21 21 21 22 22 21 27 35 23 27 52 42 32 26 35 40 41 35 56 63 62 58 56 57 52 65 52 75
8 8 8 8 8 8 8 9 13 16 22 23 20 21 21 22 25 27 24 26 29 40 38 40 32 45 64 43 46 58 56 55 53 66 57 65 100 59 74 95 92 94 92
10 9 9 8 8 8 9 13 23 30 28 26 22 17 20 25 24 24 31 26 28 52 48 50 61 65 64 58 66 68 82 70 64 79 76 80 100 100 78 100 96 67 98
12 11 11 10 17 16 22 26 37 46 35 19 19 21 20 23 23 28 33 37 48 52 66 84 85 80 89 84 77 85 79 67 60 68 69 100 100 100 61 57 64 59 74
17 24 21 31 37 28 26 17 22 22 25 24 24 32 43 44 33 48 54 60 58 74 100 100 100 98 86 72 54 61 51 50 49 69 63 95 93 90 90 65 43 51 36
22 69 62 58 40 29 20 25 32 38 50 42 41 41 68 63 63 74 99 90 87 100 95 83 83 80 65 58 53 50 44 47 57 65 58 60 76 69 55 40 58 91 86
41 33 34 35 33 24 45 89 99 63 83 60 58 59 87 86 97 93 96 85 86 92 70 72 70 68 66 57 44 41 55 57 57 55 60 74 56 63 64 93 93 87 74
33 36 31 73 68 47 89 100 99 77 64 44 72 94 83 87 92 100 99 89 81 66 67 69 51 45 46 49 59 67 42 46 98 100 98 92 87 95 100 74 64 59 55
21 20 24 56 100 100 100 100 97 79 100 100 100 99 73 100 100 100 100 100 90 70 85 74 100 100 66 82 53 58 58 100 100 96 100 90 74 72 60 54 39 40 40
15 25 40 89 100 100 100 100 100 100 96 97 100 91 100 100 100 100 95 84 97 100 100 96 100 100 89 72 91 100 100 86 63 84 88 64 65 64 61 60 60 69 55
62 97 90 100 100 100 100 100 100 100 100 100 100 100 100 97 100 100 100 97 100 100 91 93 93 77 94 100 100 98 100 90 92 90 77 62 62 59 68 77 63 50 36
100 100 100 100 100 100 100 100 100 100 100 100 100 100 100 100 99 100 100 100 100 100 98 100 93 88 100 98 97 100 93 78 73 75 67 82 68 62 54 42 35 30 27
100 100 100 100 100 100 100 100 100 100 100 100 100 100 100 100 100 100 100 100 91 100 100 100 100 100 100 100 86 84 87 90 87 87 74 72 58 40 38 33 33 33 33
100 100 100 100 100 100 100 100 100 100 100 100 100 92 100 100 100 100 100 100 100 100 100 100 91 76 88 98 83 98 96 90 90 74 66 52 40 39 32 34 34 32 33
100 100 100 100 100 100 100 100 100 100 100 100 100 100 100 100 100 100 100 100 100 100 100 99 100 100 95 88 93 90 81 63 54 43 38 32 30 31 30 29 30 31 29
100 100 100 100 100 100 100 100 100 100 100 100 100 100 100 100 100 100 100 100 100 100 92 100 98 94 82 82 78 71 58 50 39 31 28 28 26 29 27 28 27 29 32
100 100 100 100 100 100 100 100 100 100 100 100 92 95 98 96 100 100 100 100 100 98 99 100 89 80 70 60 48 39 34 31 29 28 28 28 26 26 26 27 29 29 31
100 90 97 99 100 100 100 100 100 100 98 80 78 69 92 88 100 100 97 96 98 99 93 77 65 53 45 38 33 31 30 30 29 28 29 28 30 31 30 29 28 31 36
88 80 73 76 71 64 57 71 77 90 88 74 76 98 99 96 94 82 81 84 85 73 61 48 45 38 33 31 33 38 38 34 34 35 33 33 32 32 31 31 35 37 38
100 100 92 82 100 93 100 100 100 92 83 86 96 85 73 69 70 74 70 61 51 45 42 35 33 33 36 36 34 33 33 34 34 35 38 37 39 40 44 48 45 42 39
93 100 98 99 99 100 100 100 97 93 85 71 64 64 61 64 66 50 49 49 40 34 35 38 39 37 33 34 37 37 38 42 44 45 46 51 54 56 62 56 50 46 43
100 100 100 100 100 100 100 100 95 85 69 47 45 46 38 42 49 43 38 38 41 39 43 40 36 36 40 43 42 49 53 52 49 52 58 62 66 73 71 60 54 49 43
66 83 100 100 96 82 66 59 60 64 54 34 49 52 44 35 37 42 48 46 40 40 40 39 41 42 46 48 50 53 59 55 53 57 63 66 69 75 70 61 54 45 39
89 88 79 80 66 62 58 53 45 37 44 55 41 28 30 33 42 50 48 42 40 40 43 42 43 46 49 51 53 55 53 54 56 64 63 67 68 64 55 45 40 34 28
65 65 70 62 67 70 57 73 63 70 51 43 34 26 38 43 49 50 45 43 45 44 43 45 50 50 53 51 52 53 54 58 62 62 68 68 65 56 45 34 27 23 20

GFSSE_250_rhum_030.txt.gz
RH
11 12 12 11 11 11 10 10 10 10 10 11 12 13 14 16 16 16 15 15 16 14 14 14 14 14 13 12 12 11 10 10 10 10 10 10 12 15 23 23 29 30 34
9 12 12 12 11 11 12 13 12 11 11 12 14 14 14 17 17 20 17 17 15 16 14 14 13 13 12 11 11 10 10 10 11 10 10 13 17 23 31 35 32 33 32
10 12 13 12 12 11 12 13 13 14 13 16 19 19 24 27 19 22 19 16 13 14 12 13 12 13 13 12 10 10 10 12 12 13 19 25 33 45 38 38 37 39 47
19 13 17 14 12 12 11 12 13 14 15 17 22 22 22 21 20 20 16 14 16 14 12 16 23 15 13 13 12 14 16 17 26 29 45 59 60 53 37 34 32 35 45
16 12 14 14 13 14 13 12 12 15 17 21 20 20 15 15 20 20 17 15 14 19 23 19 14 13 14 17 17 18 20 37 38 67 76 68 56 42 31 29 26 32 45
32 27 24 19 14 15 14 14 16 17 23 19 22 16 17 19 22 22 22 18 21 22 18 17 20 21 22 23 35 41 39 41 70 90 82 56 35 32 27 30 27 27 34
33 26 47 39 30 24 19 17 17 18 18 14 22 22 20 26 26 21 24 25 23 19 21 28 32 31 37 46 53 49 53 60 58 70 48 37 28 37 37 40 37 50 78
56 57 84 87 61 60 60 34 27 32 33 36 36 36 38 47 41 45 45 33 41 32 39 48 48 47 51 44 53 60 53 52 43 46 33 40 51 64 86 79 70 64 49
78 89 100 100 99 71 57 53 41 44 42 55 67 68 77 65 69 81 74 74 73 61 57 53 68 79 73 55 45 44 44 44 36 61 79 81 68 66 84 87 52 44 30
86 98 100 100 100 87 54 50 52 98 79 100 100 97 95 94 87 84 77 69 71 60 60 61 70 61 66 43 53 51 36 71 82 98 97 87 85 99 82 59 39 42 43
72 97 100 100 96 84 100 90 94 100 99 100 100 100 100 100 99 100 100 68 63 75 61 74 66 71 60 66 71 87 95 100 100 98 100 99 99 78 53 45 46 52 58
73 100 100 100 100 100 100 100 100 96 100 100 100 100 100 100 100 100 100 88 81 70 85 71 74 68 65 89 100 100 100 100 93 82 92 95 70 42 45 53 53 53 44
28 72 92 100 100 100 100 100 100 100 100 100 100 100 100 100 100 100 100 100 100 84 81 79 80 93 95 100 89 100 86 83 100 96 66 55 40 53 51 46 36 30 27
20 21 34 73 99 100 100 100 96 100 100 100 100 100 100 100 100 100 100 100 93 87 83 84 100 100 100 98 100 100 98 84 71 67 67 56 60 52 42 33 33 30 28
28 83 100 83 71 100 100 100 100 100 100 100 100 100 100 100 100 100 100 100 98 100 100 100 100 100 97 91 95 88 77 73 66 76 73 66 43 32 29 30 28 27 29
98 100 100 100 100 100 100 100 100 100 100 100 100 100 100 100 100 100 100 100 100 100 96 89 100 99 93 90 87 76 69 67 65 63 48 35 32 34 30 30 34 35 37
100 100 100 100 100 100 100 100 100 100 100 100 100 100 100 100 100 100 100 100 100 100 100 90 100 90 86 70 67 57 53 48 40 35 31 32 36 33 33 33 35 35 36
100 90 100 100 100 100 100 100 100 100 100 100 100 100 100 100 100 100 100 98 100 99 100 94 92 83 69 55 47 43 42 36 32 33 33 32 34 32 34 36 38 39 39
100 100 100 100 100 100 100 100 100 100 100 100 100 100 100 97 100 100 100 98 90 88 79 90 84 68 50 36 36 38 36 34 35 37 36 34 36 38 40 42 43 41 42
100 100 100 100 100 100 100 100 100 100 100 100 100 100 100 100 98 88 93 92 77 72 69 71 59 52 46 37 37 38 32 35 37 36 35 40 42 46 46 42 44 45 46
100 100 100 100 100 100 100 100 100 100 100 100 100 93 100 100 98 88 97 89 71 63 54 51 50 44 38 34 30 29 33 34 35 38 43 46 46 44 43 45 48 49 47
95 99 100 100 100 80 78 86 99 96 93 98 99 93 86 77 82 87 73 72 58 42 46 43 40 39 34 28 30 37 34 36 45 48 47 45 42 42 45 50 52 53 55
100 98 69 83 73 74 72 72 65 68 71 68 72 72 72 70 88 80 65 51 42 39 45 42 43 45 38 35 38 41 43 47 46 47 50 49 47 47 46 48 51 52 54
100 94 100 100 98 76 66 64 57 66 63 66 77 87 83 75 62 55 50 46 49 43 43 52 52 49 42 47 49 48 52 53 54 52 46 49 53 50 50 50 49 51 56
96 99 99 99 95 90 88 91 86 80 76 67 62 53 58 52 51 49 60 66 60 53 55 60 58 59 54 46 50 56 59 53 57 55 52 46 43 50 52 52 56 56 59
64 65 64 58 62 59 54 54 62 72 68 78 72 63 51 48 59 77 65 62 53 52 54 62 55 45 45 52 54 49 47 54 55 53 52 54 56 53 51 54 55 62 68

GFSSE_250_rhum_033.txt.gz
RH
22 16 11 10 10 11 11 11 11 11 11 11 12 11 10 11 12 13 13 13 12 12 11 13 14 14 13 11 11 10 9 9 10 10 10 10 9 8 9 9 11 12 17
12 26 24 15 11 11 11 12 12 13 12 12 12 12 11 12 14 15 15 14 14 16 17 16 15 15 14 12 11 10 9 9 10 10 9 10 10 9 11 12 18 27 31
12 11 13 15 16 13 12 13 14 14 14 14 15 14 15 16 20 19 22 20 19 16 16 16 14 14 13 12 10 10 9 11 10 10 9 10 11 14 20 32 40 42 48
21 21 17 14 17 18 17 15 14 14 14 14 16 18 23 24 27 23 25 20 18 16 16 17 14 14 11 12 11 10 13 13 12 11 12 16 16 23 35 50 60 45 35
84 41 27 21 24 22 16 16 14 15 15 16 22 22 20 21 17 19 21 21 21 17 17 16 14 14 14 12 12 12 13 13 15 19 19 25 36 59 70 64 55 40 30
68 50 49 56 79 61 38 23 18 17 18 25 21 19 21 18 17 18 24 24 20 18 16 17 17 16 15 14 15 15 17 20 25 29 32 38 55 60 41 32 28 28 27
97 100 85 75 48 57 73 60 40 26 26 29 29 26 24 26 34 30 24 25 28 25 24 23 25 21 20 18 20 20 24 35 33 56 55 46 42 42 36 36 32 44 42
84 90 99 69 38 52 46 46 54 34 26 26 33 41 35 40 35 37 40 39 32 33 33 33 33 29 27 29 35 39 48 48 63 58 48 41 34 45 55 73 73 84 81
90 85 94 80 77 41 41 90 97 83 64 63 50 44 45 50 54 63 74 83 66 77 59 66 55 36 39 41 56 62 54 58 58 50 39 44 77 96 73 49 59 58 61
100 100 100 100 100 100 100 100 100 100 88 94 91 82 82 91 85 99 95 88 99 84 73 61 51 40 41 49 53 56 45 45 45 40 73 66 66 79 72 69 70 63 38
91 98 100 100 100 100 100 98 88 82 90 100 100 100 100 100 95 87 100 100 100 85 75 65 42 60 61 57 56 49 36 37 56 82 98 91 90 66 80 70 53 46 51
98 100 100 100 100 100 100 100 100 100 100 100 100 100 100 100 100 100 100 100 100 99 92 71 68 67 74 63 61 53 75 95 95 97 100 99 91 84 67 48 41 37 37
91 100 100 100 100 100 100 100 100 100 100 100 100 100 100 100 100 100 100 100 100 100 100 98 100 77 95 71 82 100 100 100 100 100 88 72 63 51 39 33 30 33 34
68 85 72 93 88 96 100 100 96 100 100 100 100 100 100 100 100 100 100 96 100 100 100 92 100 84 100 100 100 99 100 94 91 89 66 62 49 40 35 32 31 28 27
46 42 52 70 94 91 100 100 100 100 100 100 100 100 100 100 100 100 100 100 100 100 100 100 100 100 100 97 100 77 87 90 72 67 53 39 32 34 33 32 35 33 29
31 24 31 33 100 97 100 100 100 100 100 100 100 100 100 100 100 100 100 100 100 100 100 100 100 100 100 76 60 78 71 63 55 48 42 37 35 34 33 34 34 31 32
42 33 42 70 97 100 100 100 100 100 100 100 100 100 100 100 100 100 100 100 100 100 100 100 100 100 100 100 97 77 56 50 46 43 40 38 38 36 35 33 32 32 36
48 38 100 100 100 100 100 100 100 100 100 96 100 100 100 100 100 100 100 100 100 100 100 100 97 100 89 80 70 60 53 48 46 42 39 36 35 36 36 34 34 36 37
100 100 100 100 100 100 100 100 100 100 100 100 100 100 100 100 100 100 100 100 100 100 100 96 91 83 83 75 59 45 46 44 39 44 37 40 44 39 37 43 42 43 42
100 100 100 100 100 97 100 100 100 100 100 100 100 100 100 100 99 100 100 99 100 100 96 95 86 84 74 61 49 44 40 41 47 35 38 43 42 41 44 43 43 46 50
100 100 100 100 100 92 100 100 100 100 100 100 100 100 100 100 100 100 100 82 100 100 91 76 75 66 53 47 44 44 40 42 41 47 42 42 44 47 49 49 49 50 48
80 98 100 100 100 100 95 90 98 100 100 98 100 100 100 100 99 99 99 98 91 87 79 72 58 51 45 44 44 38 34 28 26 47 48 48 50 50 49 48 48 50 47
100 90 64 88 100 100 100 100 100 97 94 94 97 96 96 91 89 86 79 74 74 68 66 60 53 51 56 57 50 38 37 39 33 31 35 52 49 50 49 44 46 45 47
100 100 100 100 95 77 64 62 43 44 45 48 59 66 66 58 62 68 62 62 56 49 54 57 59 66 58 44 41 41 41 40 45 47 45 48 47 50 50 50 49 49 43
100 97 88 100 100 100 100 100 100 100 87 79 78 80 78 73 68 60 54 49 51 73 70 73 64 46 44 41 32 32 38 53 61 62 51 45 41 40 46 49 53 55 50
95 97 89 78 70 66 68 64 68 73 76 71 66 59 56 52 54 62 54 49 67 59 50 77 70 47 48 37 41 41 52 55 59 53 50 56 62 58 53 52 57 53 47

GFSSE_250_rhum_036.txt.gz
RH
78 30 12 12 13 13 12 10 10 10 9 10 11 11 11 10 10 11 11 12 11 11 10 10 10 10 10 10 10 9 9 10 10 9 10 9 9 8 8 8 8 8 7
100 100 100 56 12 14 14 13 12 11 10 10 10 11 12 12 12 12 12 13 14 13 12 11 12 11 11 11 9 10 10 11 11 10 10 10 9 9 9 10 9 11 12
100 100 100 99 31 16 17 15 14 14 13 12 12 11 13 13 14 14 15 16 17 16 14 13 13 14 12 12 12 12 11 12 11 10 9 9 9 10 10 10 12 15 14
100 98 85 87 66 30 17 22 18 15 15 14 13 13 14 15 16 16 17 19 18 17 16 15 15 14 13 14 15 13 13 12 11 10 10 10 11 12 13 17 17 19 25
97 87 93 75 66 80 24 14 24 25 19 15 14 15 16 17 18 19 21 20 23 22 17 16 16 17 17 18 16 15 13 13 12 12 12 13 13 18 21 28 28 31 36
100 77 89 90 66 28 36 20 20 28 30 25 21 18 18 18 20 20 21 25 20 22 20 18 16 16 15 15 16 15 16 15 14 14 14 18 18 24 30 36 40 36 38
100 89 95 100 96 96 46 57 37 29 24 23 31 28 29 27 23 21 22 24 23 23 24 25 27 22 20 19 18 17 20 19 19 26 27 31 33 34 38 46 41 40 48
100 97 93 100 100 100 100 75 51 56 69 68 56 43 48 45 31 29 28 29 30 29 36 37 32 32 32 30 36 35 28 29 35 38 44 36 36 33 35 35 36 40 39
99 100 100 100 100 100 100 100 97 54 48 75 80 70 69 51 32 29 28 32 35 41 44 53 55 54 50 54 48 38 35 34 40 51 43 42 36 34 37 37 51 76 74
100 100 100 100 100 100 100 100 100 90 77 100 73 82 58 74 66 55 49 63 64 68 80 80 70 70 65 54 47 37 36 44 44 39 40 43 45 67 82 77 100 89 74
100 100 100 99 100 100 100 100 100 100 100 99 100 100 100 100 100 100 100 100 90 83 84 81 90 83 76 45 43 48 54 58 55 56 54 63 74 100 99 100 95 82 70
100 100 100 100 100 100 100 100 100 100 100 100 100 100 100 100 100 100 100 100 99 100 100 100 88 100 66 74 74 95 82 73 74 96 100 100 90 71 91 83 63 48 42
100 100 100 100 100 100 100 100 100 100 100 100 100 100 100 100 100 100 100 100 100 100 100 100 94 92 96 99 100 100 87 100 100 80 85 81 62 83 74 59 42 34 28
99 100 100 98 99 99 100 100 96 87 100 100 100 100 100 100 100 100 100 100 100 100 100 100 100 100 100 100 100 86 100 99 99 92 90 72 73 80 67 46 40 34 31
86 95 76 95 95 88 87 100 98 70 100 100 100 100 100 100 100 100 100 100 100 100 100 100 100 100 100 100 100 100 99 100 100 99 95 87 71 58 43 33 33 35 33
100 100 100 99 100 97 100 100 100 100 100 100 100 100 100 100 100 100 100 100 100 100 100 100 100 100 94 83 98 97 100 100 100 90 73 65 65 52 41 35 33 32 35
90 79 71 84 81 65 98 100 100 100 100 100 94 93 100 100 99 100 100 100 100 100 96 100 96 99 100 100 100 100 97 85 76 79 78 59 43 38 37 35 33 32 37
88 69 66 53 68 52 94 100 100 100 100 100 100 100 82 77 100 100 100 100 100 100 100 95 100 100 99 94 96 90 97 88 78 72 54 45 42 39 38 34 32 36 38
72 44 33 42 49 92 52 91 100 100 100 100 100 100 100 99 100 100 100 100 100 100 100 100 85 100 97 99 100 100 95 91 78 60 48 41 40 40 36 35 31 33 40
46 44 57 58 84 78 94 91 100 100 100 100 100 100 100 100 100 92 100 100 100 100 100 98 84 98 100 99 84 89 83 77 61 50 45 42 40 38 33 35 37 43 49
83 100 90 78 95 100 100 100 100 100 100 100 100 100 100 100 100 100 100 100 100 100 100 100 100 94 85 90 80 77 69 57 53 50 51 45 35 37 46 49 52 53 58
89 100 100 100 100 100 100 84 96 88 100 100 100 100 100 100 100 99 92 96 100 100 95 89 85 86 80 73 66 54 42 41 40 44 40 43 42 48 56 57 64 62 50
100 100 100 94 97 100 100 100 99 93 94 90 85 95 100 100 100 100 98 91 92 82 84 80 72 68 64 62 61 44 41 38 36 34 30 32 44 64 61 55 50 46 46
89 86 63 83 100 100 87 97 83 79 68 97 86 82 71 83 70 69 70 76 77 72 71 67 60 63 56 51 48 46 40 32 35 35 42 53 46 56 54 58 52 44 39
100 100 100 100 96 100 100 87 88 88 79 75 66 78 62 48 47 62 60 72 71 68 61 56 54 74 49 47 42 39 39 34 47 56 67 56 50 46 42 42 46 49 54
88 89 85 100 100 85 76 95 97 96 89 81 77 77 77 74 78 76 78 70 59 57 51 45 64 77 78 73 61 45 53 48 49 49 84 88 75 62 57 46 40 39 41

GFSSE_250_rhum_039.txt.gz
RH
100 99 96 100 100 56 22 14 14 16 14 13 13 11 10 10 9 9 9 10 10 10 10 9 9 8 9 9 9 9 9 9 8 8 8 9 9 8 9 9 9 8 8
95 100 99 83 94 87 34 24 20 16 15 15 17 16 14 12 10 9 10 10 10 10 10 10 10 8 9 10 10 10 9 9 9 10 10 11 12 10 10 10 10 9 9
100 100 82 86 100 99 100 88 17 13 13 15 18 16 16 16 14 14 14 14 13 12 10 11 10 9 10 10 10 10 10 10 10 11 11 13 12 12 11 11 10 10 10
100 100 100 92 98 82 80 100 100 82 45 14 14 15 16 17 18 18 15 16 16 13 12 12 13 13 12 12 13 12 11 12 11 13 12 12 12 12 12 11 11 12 12
97 96 100 100 100 100 100 100 97 91 88 81 17 14 15 16 18 18 19 17 16 15 16 15 16 14 14 15 15 14 14 14 13 14 12 12 12 12 11 12 13 18 20
78 83 88 81 97 100 100 100 68 68 56 63 55 18 18 17 17 17 19 19 20 18 18 18 18 19 18 17 14 16 15 16 14 15 13 14 14 12 16 18 21 23 23
96 97 100 90 98 100 100 100 77 57 70 82 66 48 22 23 26 25 21 20 19 20 18 18 19 19 22 20 21 22 17 19 19 21 19 19 22 23 25 26 27 28 31
98 95 100 100 100 100 100 100 100 74 92 98 98 88 90 40 30 37 34 29 28 28 27 30 30 31 27 36 33 33 27 31 28 27 32 28 29 33 32 33 29 29 35
99 98 99 100 100 100 100 100 100 99 85 100 100 100 77 94 70 51 53 50 50 40 38 43 42 39 41 34 40 38 45 39 32 35 29 30 34 30 30 42 41 60 65
100 100 100 100 100 100 100 100 98 81 83 100 100 100 94 75 84 83 91 91 85 75 84 100 82 75 63 65 52 62 59 43 32 31 34 32 38 39 59 57 62 61 55
100 100 100 100 100 100 100 98 100 78 93 100 100 98 100 99 85 98 100 100 100 100 100 100 100 90 78 64 62 64 53 48 69 49 52 55 74 75 81 66 61 69 63
100 100 100 100 100 100 99 100 100 100 100 100 80 82 100 100 100 100 100 100 100 100 100 97 80 74 80 68 79 78 70 92 78 79 55 69 100 89 88 95 96 86 84
100 100 100 100 100 92 100 98 100 100 98 71 83 98 100 100 100 100 95 76 94 100 100 99 100 100 85 100 99 89 100 100 82 71 98 100 100 97 100 89 71 82 68
100 100 95 100 100 79 86 90 93 89 82 89 73 100 90 100 100 100 100 100 100 100 100 100 100 99 99 100 100 100 100 100 86 100 93 77 95 72 93 65 80 67 69
100 100 100 100 100 78 62 44 69 70 58 57 96 100 96 100 100 100 100 100 100 100 100 100 97 100 100 100 96 92 92 94 92 100 91 96 100 98 75 79 66 66 50
100 100 100 100 87 59 98 91 97 85 64 68 59 74 100 92 100 100 100 100 100 100 100 100 100 100 100 100 98 100 100 100 100 100 100 96 86 77 88 82 68 58 45
100 100 100 100 100 100 100 100 99 100 100 100 98 77 100 100 100 100 100 91 100 100 100 100 100 100 100 100 100 82 100 100 100 98 80 99 86 93 75 70 56 49 45
100 100 100 100 100 100 100 100 100 100 100 100 100 90 100 100 100 99 99 96 100 100 100 100 100 99 92 100 100 100 100 99 97 98 91 93 83 73 62 53 51 47 44
99 100 100 100 100 100 100 100 98 84 90 100 100 100 100 100 100 94 77 71 81 81 97 100 100 100 100 100 100 100 100 100 73 68 89 79 67 57 53 45 44 41 37
100 100 100 100 100 100 100 95 77 53 66 98 100 100 100 100 100 100 100 100 100 98 100 100 100 100 100 100 100 100 100 90 93 81 67 58 55 47 45 42 37 33 32
90 97 68 100 100 100 94 80 59 45 53 76 99 100 100 100 100 100 75 86 85 92 100 100 100 100 100 100 100 99 93 87 74 62 55 44 44 38 35 32 38 40 48
95 86 94 88 83 94 77 61 40 34 71 89 100 100 100 100 100 100 100 100 100 100 100 100 100 100 100 99 98 95 85 74 64 49 44 42 42 38 39 53 56 52 59
74 56 60 56 58 60 65 49 41 84 92 73 76 100 100 100 100 100 98 100 100 100 100 95 88 79 87 85 76 66 52 50 50 43 37 40 42 51 56 56 48 58 64
98 93 64 75 94 90 93 97 100 100 100 96 96 88 73 74 62 82 87 84 79 73 94 79 87 76 75 75 68 55 43 38 38 34 36 36 43 44 49 51 60 63 58
100 61 78 100 100 100 100 100 100 100 72 81 100 100 100 94 92 100 100 86 85 76 76 85 85 76 65 51 50 44 47 43 46 47 58 52 50 59 56 63 55 56 58
100 100 89 85 82 84 63 79 71 62 84 100 91 96 91 84 68 65 71 72 67 54 52 56 67 58 48 49 48 60 66 81 80 67 58 66 96 81 82 62 61 59 55

GFSSE_250_rhum_042.txt.gz
RH
11 13 16 50 71 77 76 93 89 47 40 46 47 43 30 26 28 20 14 13 11 10 9 8 8 10 11 10 10 9 9 10 9 9 9 9 8 8 8 9 9 9 9
10 11 57 100 100 100 100 99 80 100 97 73 37 43 37 27 34 38 21 17 16 14 10 10 10 10 11 11 10 9 9 10 9 9 9 9 9 9 9 9 10 10 10
11 100 100 92 100 100 100 100 100 100 100 100 74 33 28 26 24 22 20 20 18 16 16 14 13 12 12 12 11 9 10 11 11 11 12 12 11 11 10 11 12 11 12
13 87 100 100 100 100 92 93 100 84 98 95 100 70 30 22 20 18 21 21 19 18 19 22 18 18 17 16 16 13 14 13 13 14 14 14 13 13 12 13 13 13 12
72 100 100 100 98 99 98 95 97 100 100 100 100 100 100 94 62 28 16 17 18 21 21 19 18 19 21 21 18 17 17 17 17 16 15 16 16 14 14 14 14 13 14
100 100 89 100 98 100 87 78 86 100 100 100 100 86 85 92 82 93 71 19 15 17 18 17 17 19 21 19 19 19 20 19 17 16 15 15 16 17 17 16 18 18 18
100 100 100 100 100 100 93 100 95 82 100 100 100 74 77 80 72 82 85 60 24 17 17 17 18 19 20 19 19 22 22 20 18 19 23 20 20 21 22 25 26 23 25
100 91 78 100 100 100 96 100 100 72 88 100 67 63 94 86 75 82 89 79 49 28 22 24 26 27 29 28 36 38 35 33 35 39 39 28 33 31 31 34 32 30 30
100 100 86 100 95 100 100 97 100 97 100 94 61 67 70 72 67 68 68 89 87 78 47 43 45 42 63 52 52 53 62 53 41 48 47 47 49 40 35 32 28 37 43
78 86 100 100 80 100 100 100 100 100 91 76 73 72 62 50 56 70 68 64 74 87 93 90 75 79 100 77 68 78 65 70 63 64 52 53 45 47 38 36 41 50 49
88 79 87 100 100 100 100 100 100 97 74 90 100 87 67 46 40 66 82 86 100 100 100 100 87 84 91 88 78 71 73 67 57 59 68 77 65 46 49 51 64 85 62
65 77 90 96 100 100 100 100 100 100 100 94 99 89 76 35 34 47 96 100 98 92 100 100 99 100 100 100 96 76 68 62 72 98 100 90 77 58 63 70 95 59 54
79 100 100 100 100 100 100 100 100 100 100 100 74 61 45 38 51 49 76 90 100 100 100 98 96 100 100 93 74 63 71 96 100 100 77 69 81 87 84 100 98 76 98
100 100 100 100 100 100 99 100 100 97 86 80 73 41 43 51 51 56 58 94 100 100 100 98 100 100 100 100 99 99 100 100 100 95 93 91 100 98 100 98 94 96 80
100 100 100 100 100 100 100 100 94 100 86 67 84 58 58 62 57 59 80 76 99 96 88 92 100 100 100 100 100 100 96 96 100 94 100 100 100 100 100 100 78 92 67
100 100 100 93 97 100 100 100 100 100 100 93 88 87 76 62 57 56 75 90 76 95 98 92 84 100 100 100 91 100 100 89 98 100 100 100 100 100 100 96 100 72 70
100 100 100 100 100 91 94 95 100 86 74 81 80 99 88 69 64 73 87 64 72 96 100 100 100 100 100 100 100 100 100 100 100 100 100 100 100 100 91 100 91 80 70
100 100 100 100 100 100 100 100 98 96 92 82 74 76 68 79 95 97 94 92 84 96 100 95 94 83 100 99 100 100 100 100 100 100 94 98 100 100 98 91 86 78 60
100 100 100 100 100 98 98 85 94 100 100 100 89 91 91 84 81 99 100 100 100 100 88 94 69 67 60 92 91 92 100 98 87 100 100 100 98 99 93 85 76 60 54
100 100 100 100 96 96 78 100 100 100 100 94 90 87 89 84 91 89 95 100 100 86 83 65 65 71 87 82 99 100 100 100 100 100 93 92 93 82 80 65 55 53 47
100 100 100 100 96 100 90 94 100 100 91 93 100 100 90 75 58 56 100 99 100 80 81 100 100 100 100 100 100 100 100 100 92 84 86 78 82 72 56 54 44 39 40
100 100 100 100 86 100 94 100 100 100 100 100 100 100 82 85 61 50 77 100 100 100 100 100 100 100 100 100 100 97 91 91 79 76 71 65 63 57 46 44 44 55 56
100 100 100 100 100 100 100 100 100 100 100 100 97 80 71 54 56 96 100 99 100 100 100 100 95 96 100 95 79 70 76 86 74 65 53 49 48 54 52 56 62 62 59
86 100 100 100 100 100 92 89 100 90 80 68 87 75 64 56 58 66 69 72 67 89 74 57 75 82 81 79 73 62 52 53 50 60 54 44 46 56 57 62 58 51 59
72 72 79 87 90 80 60 63 74 65 59 48 73 86 100 100 100 100 100 100 100 97 82 86 76 59 65 62 54 45 40 50 46 40 54 67 80 74 66 66 56 65 81
100 94 62 49 54 56 52 50 49 47 68 92 98 99 97 89 85 91 84 78 69 57 45 44 44 60 73 61 50 53 60 65 60 65 73 90 76 65 73 75 82 76 77

GFSSE_250_rhum_045.txt.gz
RH
15 16 18 21 27 30 71 68 41 33 28 32 46 85 100 98 88 67 67 58 52 54 38 29 24 19 17 17 14 15 14 10 9 9 10 9 9 9 9 10 11 11 11
13 13 13 17 20 21 68 50 45 52 52 68 85 80 82 66 60 67 77 82 60 41 41 39 34 32 19 20 24 16 11 14 10 10 12 12 10 11 11 11 12 13 13
11 11 12 20 18 32 52 80 100 100 100 100 100 100 100 100 70 62 81 86 81 67 48 41 42 37 29 28 32 27 17 16 13 11 11 12 12 12 13 13 13 13 13
22 22 20 31 29 90 100 100 100 100 69 90 78 97 100 99 100 100 79 68 55 50 49 40 34 37 44 35 25 23 20 16 17 17 15 14 13 14 14 15 15 14 14
8 16 12 19 66 100 97 100 100 100 94 100 100 100 100 100 100 99 91 80 58 45 41 35 27 25 26 23 21 21 20 19 17 19 18 17 16 18 18 17 17 18 18
9 10 18 90 100 100 100 100 100 100 100 99 93 77 100 100 96 95 81 83 85 55 41 28 26 21 18 18 19 20 20 19 17 17 20 19 19 18 22 22 21 21 24
10 15 100 100 100 98 98 100 100 90 98 96 71 100 100 97 93 81 70 57 58 73 76 57 41 35 27 20 17 16 17 18 19 20 22 23 26 25 32 30 31 33 38
17 79 100 100 90 91 100 98 80 100 83 91 96 100 100 96 86 73 61 41 32 38 47 49 53 52 50 37 24 21 21 25 25 29 34 35 37 40 45 44 49 48 48
37 100 92 100 98 95 100 100 100 100 100 98 100 100 100 100 85 62 42 30 27 30 35 45 50 50 59 61 46 36 30 35 38 40 42 50 56 56 65 61 53 51 43
100 100 100 100 100 100 100 100 100 100 100 100 88 100 100 90 76 51 38 33 22 19 26 42 43 40 63 85 85 79 68 80 85 87 80 82 70 68 78 73 66 51 46
100 100 100 96 100 100 100 91 100 100 100 100 100 83 100 97 81 46 39 22 20 24 28 30 44 43 64 87 83 86 99 100 100 98 83 79 77 98 100 83 66 60 61
100 100 100 100 100 100 99 100 100 99 100 100 100 98 84 76 58 46 24 22 29 38 33 37 56 63 63 77 87 92 100 100 99 97 84 69 86 100 100 68 78 70 57
100 100 100 100 71 98 100 100 100 100 100 100 100 100 78 44 55 30 23 22 45 46 39 42 53 63 70 80 80 74 98 100 71 66 66 59 72 98 80 58 78 84 74
100 100 100 100 100 100 100 100 100 100 100 100 100 100 83 66 55 37 29 40 50 48 41 44 76 84 98 80 71 65 71 93 99 71 76 87 87 93 62 75 70 87 100
100 100 100 100 100 100 100 100 100 100 100 100 98 92 88 77 54 42 57 46 54 54 51 54 59 61 50 72 95 78 87 100 100 100 96 98 91 68 86 100 100 100 100
100 100 100 100 100 100 100 100 100 100 100 89 100 82 81 67 72 63 74 80 55 57 58 66 99 93 89 91 100 96 100 97 98 100 100 75 76 92 100 100 100 100 100
100 100 100 100 100 100 100 100 100 100 100 100 100 100 99 79 100 76 67 70 74 69 75 76 80 77 76 89 94 92 88 78 83 74 73 98 100 100 100 100 100 100 100
100 100 100 100 100 100 100 98 98 100 100 100 100 100 100 88 64 64 77 83 79 78 81 84 100 97 89 90 98 90 74 56 51 81 99 97 100 100 100 100 100 99 90
100 100 100 100 100 100 100 100 100 96 100 93 100 94 94 80 74 81 77 84 88 93 100 95 100 100 100 94 87 63 54 61 91 100 100 100 100 100 99 89 87 78 75
99 100 100 100 100 100 100 100 100 100 100 89 88 90 70 63 78 90 89 98 100 90 85 72 100 100 80 81 93 100 100 100 100 100 100 100 100 97 88 82 74 59 52
70 99 100 100 100 100 100 100 100 100 100 96 81 77 67 82 94 98 97 100 91 71 85 72 67 61 72 100 100 100 100 100 100 100 100 98 83 70 61 51 51 55 49
56 75 99 100 100 100 100 100 100 100 98 92 91 78 75 97 97 99 100 76 69 80 100 100 100 100 100 100 100 100 97 88 85 74 66 59 56 50 44 44 43 45 48
67 69 100 100 100 100 100 100 100 100 94 94 83 100 100 100 100 96 81 80 77 94 87 84 90 88 99 83 88 88 70 62 60 56 58 53 48 42 46 52 58 61 69
64 93 100 96 100 100 100 100 100 100 100 100 100 100 93 90 87 77 90 88 100 81 96 100 98 89 96 97 82 58 49 46 50 64 61 49 52 54 55 69 82 84 93
62 68 100 100 100 100 100 100 100 100 100 100 95 91 87 79 71 83 87 100 97 82 97 99 84 76 73 59 52 45 41 45 52 54 37 39 44 52 70 86 88 98 100
62 73 85 89 100 100 100 100 100 100 97 97 87 80 74 70 68 76 89 82 79 81 81 76 63 61 56 50 39 41 47 47 39 40 49 56 54 67 88 90 93 92 95